Regional Weather Roundup
Issued by NWS

Home | Current Version | Previous Version | Graphics & Text | Print | Product List | Glossary On
Versions: 1 2 3 4 5 6 7 8 9 10 11 12 13 14 15 16 17 18 19 20 21 22 23 24 25 26 27 28 29 30 31 32 33 34 35 36 37 38 39 40 41 42 43 44 45 46 47 48 49 50
000
ASUS43 KBIS 040110
RWRND

NORTH DAKOTA REGIONAL WEATHER ROUNDUP
NATIONAL WEATHER SERVICE BISMARCK ND
700 PM CST TUE MAR 03 2015

NOTE: "FAIR" INDICATES FEW OR NO CLOUDS BELOW 12,000 FEET WITH NO
SIGNIFICANT WEATHER AND/OR OBSTRUCTIONS TO VISIBILITY.


NDZ001>003-009>011-017-040200-
NORTHWEST NORTH DAKOTA

CITY           SKY/WX    TMP DP  RH WIND       PRES   REMARKS
WILLISTON      MOCLDY     5  -4  66 N7        30.01S WCI  -7
MINOT          CLEAR      1  -9  62 W16       29.99R WCI -19
MINOT AFB      PTCLDY     1  -7  70 W14       29.98R WCI -18
$$

NDZ018>021-031>035-040>046-040200-
SOUTHWEST NORTH DAKOTA

CITY           SKY/WX    TMP DP  RH WIND       PRES   REMARKS
BISMARCK       CLEAR      8  -3  61 NW13      30.03R WCI  -8
DICKINSON      MOCLDY     9  -4  55 NW15      29.94R WCI  -8
GARRISON         N/A      2  -7  66 NW20      29.99R WCI -19
HETTINGER ARPT CLEAR     10  -6  48 NW16      29.96S WCI  -7
$$

NDZ004>008-012>016-024-026-027-054-040200-
NORTHEAST NORTH DAKOTA

CITY           SKY/WX    TMP DP  RH WIND       PRES   REMARKS
GRAND FORKS    MOCLDY     4  -5  66 NW16G24   29.97R WCI -15
GRND FRKS AFB  MOCLDY     3  -8  60 NW15G28   29.97R WCI -15
DEVILS LAKE    CLEAR      0 -11  60 NW26G36   29.94R WCI -25
$$

NDZ022-023-025-028>030-036>039-047>053-040200-
SOUTHEAST NORTH DAKOTA

CITY           SKY/WX    TMP DP  RH WIND       PRES   REMARKS
FARGO          FLURRIES   7  -6  55 NW26G33   30.00R WCI -15
JAMESTOWN      CLEAR      3  -6  66 NW21      29.98R WCI -18
$$



USA.gov is the U.S. government's official web portal to all federal, state and local government web resources and services.